Showing default

COSMOS 2211, 22182

Orbit data source: Space-Track

COSMOS 2211, 22182 is a payload satellite owned by VKS (CIS) in LEO that was launched on Tue, 20 Oct 1992 UTC via a TSIKLON-3 launch vehicle from the Plesetsk Missile And Space Complex (PKMTR). Payload-class satellites include a variety of spacecraft equipped with specific instruments for various scientific and technological missions. These include communications satellites like Starlink; space stations such as the ISS; scientific satellites like the Hubble; Earth observation satellites from companies like Planet Labs, Umbra, and HawkEye 360; GPS; miniature CubeSats for education and research; and military/defense satellites.

Loading next visibility...
Identifier
22182, 1992-068A
Orbit
LEO
Country
Flag of CISCIS
Related business
Manufacturer
NPO PM
Mission
Defense Communications
Bus & Motor
STRELA-3, Unknown motor
Mass
225 kg wet, 225 kg dry
Launch date (UTC)
1992-10-20 (33 years ago)
Launch vehicle
TSIKLON-3
Launch site
Plesetsk Missile And Space Complex (PKMTR)
Object type
Payload
Rocket body
Debris
Shape & HBR
Cyl, 0.8 m
Radar Cross Section
1.257 m², Large (>1 m²)

Expand to show TLE details & history
Last TLE update: 13 hours ago

TLE from 13 hours ago
0 COSMOS 2211
1 22182U 92068A   26036.00492394  .00000010  00000-0 -25892-5 0  9991
2 22182  82.5924  45.9038 0008888  91.5997 295.7460 12.64062629536047
Epoch: 2026-02-05T00:07Z
TLE epoch observation values (Epoch: 2026-02-05T00:07:05.428Z)
Latitude
27.04298°
Longitude
-87.24565°
Altitude
1,406.383 km
Speed
7.161 km/s
True Right ascension
03h 18m 45s
True Declination
26° 54' 56"
Sunlit
Object was in daylight at epoch
Visualization orbit readout
Latitude
Unknown
Longitude
Unknown
Altitude
Unknown
Speed
Unknown
Apparent Right ascension
Unknown
Apparent Declination
Unknown
Sunlit
N/A
Visualization observer readout
Local Sidereal Time
15:18:04
Azimuth
Unknown
Elevation
Unknown
Doppler factor
Unknown
Orbital elements
Apogee altitude
1,410.455 km
Perigee altitude
1,396.622 km
Semi-major axis
7,781.675 km
Eccentricity
0.00089
Inclination
82.5924°
RAAN
45.9038°
Arg. of periapsis
91.5997°
True anomaly
295.65422°
Mean anomaly
295.746°
Eccentric anomaly
295.70011°
Mean motion
3.16179 °/min
Orbital period
113.86 mins
BSTAR
-0.0000025892
Loading maneuver chart data...
Computing Atmospheric mass density...
Loading historical data...
Loading historical data...
Loading historical data...
Loading historical data...
Loading historical data...
Loading historical data...
Loading historical data...

Documentation

Showing up to 5 results
|